Regional Weather Roundup
Issued by NWS

Home | Current Version | Previous Version | Text Only | Print | Product List | Glossary Off
Versions: 1 2 3 4 5 6 7 8 9 10 11 12 13 14 15 16 17 18 19 20 21 22 23 24 25 26 27

000
ASUS45 KCYS 190710
RWRWY

WYOMING REGIONAL WEATHER ROUNDUP
NATIONAL WEATHER SERVICE CHEYENNE WY
100 AM MDT SAT APR 19 2014

NOTE:  "FAIR" INDICATES FEW OR NO CLOUDS BELOW 12,000 FEET
WITH NO SIGNIFICANT WEATHER AND/OR OBSTRUCTIONS TO VISIBILITY.

WYZ001-190800-
YELLOWSTONE NATIONAL PARK

CITY           SKY/WX    TMP DP  RH WIND       PRES   REMARKS
LK YELLOWSTONE   N/A     26  22  84 N3        30.04S
W YELLOWSTONE  NOT AVBL

$$
WYZ002>013-054>058-071-098>099-190800-
NORTHERN WYOMING

CITY           SKY/WX    TMP DP  RH WIND       PRES   REMARKS
JACKSON        PTCLDY    34  27  75 CALM      30.03S
CODY           PTCLDY    37  27  65 CALM      29.92S
GREYBULL       PTCLDY    43  28  55 S5        29.89R
WORLAND        PTCLDY    37  29  72 S10       29.92R WCI  30
SHERIDAN         N/A     41  32  70 SW8         N/A
BUFFALO        PTCLDY    36  26  67 CALM      29.93R
GILLETTE       PTCLDY    38  30  73 N10       29.92S WCI  31
HULETT         CLOUDY   N/A N/A N/A NW7       29.93
NEWCASTLE      FAIR      45  34  65 N24G40    29.88

$$
WYZ014>020-022>026-101>103-190800-
CENTRAL WYOMING

CITY           SKY/WX    TMP DP  RH WIND       PRES   REMARKS
BIG PINEY      PTCLDY    25  14  63 N3        30.05S
PINEDALE       MOSUNNY   28  21  74 W5        30.08R WCI  23
DUBOIS         FAIR      34  18  51 NW17G24   29.97S WCI  23
LANDER         PTCLDY    42  15  33 S9        29.93R
RIVERTON       PTCLDY    43  13  29 NW16      29.92R
CASPER         PTCLDY    38  30  73 N6        29.98R WCI  33
DOUGLAS        MOCLDY    44  37  76 NW20G29   29.94R

$$
WYZ021-027>030-104>119-190800-
SOUTHERN WYOMING

CITY           SKY/WX    TMP DP  RH WIND       PRES   REMARKS
EVANSTON       MOCLDY    43  32  65 CALM      30.07S
KEMMERER       PTSUNNY   34  23  64 CALM      30.07S
FORT BRIDGER   FAIR      39  33  77 S5        30.09S
ROCK SPRINGS   CLOUDY    46  31  55 SW10      30.03S
DIXON          CLOUDY    43  33  68 CALM      30.07R
RAWLINS        MOCLDY    45  31  58 W14       30.01S
SARATOGA       CLOUDY    37  30  75 S6        30.05S WCI  33
LARAMIE        MOCLDY    41  30  65 NE6       30.02R
CHEYENNE       CLOUDY    50  33  52 W6        29.96R
TORRINGTON     CLOUDY    55  36  48 W8        29.87R
PINE BLUFFS    FAIR      50  34  53 CALM      29.92S

$$



USA.gov is the U.S. government's official web portal to all federal, state and local government web resources and services.